Flag for Germany Weather past 2 weeks in Rheda-Wiedenbrück, North Rhine-Westphalia, Germany

Now
68 °F

Passing clouds.


Feels Like: 68 °F
Forecast: 53 / 61 °F
Wind: 6 mph from West

Location: Paderborn / Lippstadt

Current Time: Sep 20, 2014 at 6:14:50 PM

Latest Report: Sep 20, 2014 at 3:20 PM


Visibility: 4 mi

Pressure: 29.95 "Hg

Humidity: 73%

Dew point: 59 °F

Location of Rheda-WiedenbrückLocation

Historic Weather in Rheda-Wiedenbrück — Graph

°F

Rheda-Wiedenbrück temperature yesterday

Maximum temperature yesterday: 72 °F (at 1:50 PM)
Minimum temperature yesterday: 59 °F (at 3:20 AM)
Average temperature yesterday: 65 °F

Past Weeks' High & Low Weather Summary

 TemperatureHumidityPressure
High75 °F (Sep 6, 2:20 PM)100% (Sep 5, 10:50 PM)30.24 "Hg (Sep 5, 10:50 PM)
Low45 °F (Sep 12, 3:50 AM)50% (Sep 17, 4:20 PM)29.86 "Hg (Sep 19, 4:50 AM)
Average61 °F85%30.03 "Hg
* Reported Sep 5 3:20 PM — Sep 20 3:20 PM, Rheda-Wiedenbrück, Weather by CustomWeather, © 2014

Note: Actual official high and low records may vary slightly from our data, if they occured in-between our weather recording intervals... More about our weather records

Advertising

Rheda-Wiedenbrück weather history for previous 24 hours

 ConditionsComfort  
Time TempWeatherWind HumidityBarometerVisibility
3:20 PM
Sep 20
68 °FPassing clouds.6 mph73%29.95 "Hg4 mi
2:50 PM66 °FPassing clouds.7 mph83%29.95 "Hg4 mi
2:20 PM66 °FFog.10 mph88%29.95 "Hg3 mi
1:50 PM66 °FFog.7 mph88%29.98 "Hg2 mi
1:20 PM66 °FFog.7 mph88%29.98 "Hg2 mi
12:50 PM66 °FFog.7 mph94%29.98 "Hg2 mi
12:20 PM66 °FFog.7 mph88%29.95 "Hg2 mi
11:50 AM66 °FFog.6 mph94%29.95 "Hg3 mi
11:20 AM64 °FFog.6 mph100%29.95 "Hg2 mi
10:50 AM64 °FFog.5 mph100%29.95 "Hg2 mi
10:20 AM64 °FFog.7 mph100%29.95 "Hg3 mi
9:50 AM63 °FFog.7 mph100%29.95 "Hg3 mi
9:20 AM63 °FFog.2 mph100%29.95 "Hg3 mi
8:50 AM63 °FFog.2 mph94%29.95 "Hg2 mi
8:20 AM61 °FFog.2 mph100%29.95 "Hg2 mi
7:50 AM61 °FFog.5 mph94%29.95 "Hg2 mi
7:20 AM59 °FFog.3 mph94%29.95 "Hg2 mi
6:50 AM57 °FFog.2 mph100%29.95 "Hg2 mi
6:20 AM57 °FFog.3 mph100%29.95 "Hg1 mi
5:50 AM55 °FPassing clouds.2 mph100%29.92 "Hg5 mi
5:20 AM57 °FPassing clouds.2 mph100%29.92 "HgN/A
4:50 AM59 °FPassing clouds.1 mph100%29.92 "HgN/A
4:20 AM59 °FPassing clouds.1 mph100%29.92 "HgN/A
12:20 AM61 °FPassing clouds.1 mph100%29.95 "HgN/A
11:50 PM
Sep 19
61 °FPassing clouds.3 mph100%29.95 "HgN/A
11:20 PM63 °FPassing clouds.2 mph100%29.95 "HgN/A
10:50 PM63 °FPassing clouds.3 mph100%29.92 "HgN/A
10:20 PM63 °FSprinkles. Passing clouds.3 mph100%29.92 "HgN/A
9:50 PM63 °FPassing clouds.2 mph100%29.92 "HgN/A
9:20 PM63 °FThundershowers. Passing clouds.2 mph100%29.92 "HgN/A
8:50 PM64 °FThundershowers. Passing clouds.2 mph94%29.92 "HgN/A
8:20 PM63 °FThundershowers. Broken clouds.3 mph100%29.92 "HgN/A
7:50 PM64 °FThunderstorms. Partly sunny.3 mph100%29.92 "HgN/A
7:20 PM64 °FThunderstorms. Partly sunny.5 mph100%29.92 "HgN/A
6:50 PM66 °FThunderstorms. Partly sunny.1 mph94%29.89 "HgN/A
6:20 PM66 °FThunderstorms. Partly sunny.6 mph94%29.92 "HgN/A
Weather by CustomWeather, © 2014

See weather overviewHow to use our weather pages